{"data":{"norad_id":69827,"intl_designator":"2026-154J","name":"STARLINK-38031","alt_names":[],"object_type":"PAYLOAD","status":"ACTIVE","operator":null,"country":"US","launch_date":"2026-07-05","launch_site_code":"AFETR","launch_vehicle":null,"mission":null,"orbit_class":"UNKNOWN","rcs_meters":null,"size_class":null,"mass_kg":null,"dimensions":null,"purposes":["comms"],"wikipedia_slug":null,"has_3d_model":false,"image_url":null,"decayed_at":null,"tle_current":{"epoch":"2026-09-19T18:30:22.483584Z","epoch_age_seconds":80782,"freshness":"FRESH","line1":"1 69827U 26154J   26262.77109356  .00009358  00000+0  28782-3 0  9990","line2":"2 69827  53.1551 335.3293 0001120  70.5617 289.5507 15.34390961 13126","mean_motion":15.34390961,"eccentricity":0.000112,"inclination_deg":53.1551,"raan_deg":335.3293,"arg_perigee_deg":70.5617,"mean_anomaly_deg":289.5507,"bstar":0.00028782,"rev_number":1312,"period_min":93.848310932536,"perigee_km":461.96392903599,"apogee_km":463.49628326776,"semimajor_km":6840.8671061519,"source":"CELESTRAK","updated_at":"2026-09-20T09:00:44.292891Z"}}}